sat.trackr.live / text

‹ back to catalog

STARLINK-6211

NORAD 57059 · 2023-088M

PAYLOAD ACTIVE UNKNOWN

§ Identity

Operator
Country
US
Launch date
2023-06-22
Launch site
AFWTR
Launch vehicle
Mass (kg)
RCS (m²)

Purposes: comms

External: N2YO · Heavens-Above · Gunter

§ Orbital elements

Epoch: 2026-05-25T02:35:41.371008Z

Period
94.27 min
Inclination
43.0061°
Eccentricity
0.0001593
Mean motion
15.27577328 rev/d
Perigee alt
482.0 km
Apogee alt
484.2 km
Semi-major
6,861.2 km
B*
7.7937e-6
RAAN
38.7366°
Arg perigee
267.4388°
Mean anomaly
92.6281°
Rev number
16,202

§ Raw data

STARLINK-62111 57059U 23088M   26145.10811772 -.00000048  00000+0  77937-5 0  99922 57059  43.0061  38.7366 0001593 267.4388  92.6281 15.27577328162027

JSON: /api/v1/satellites/57059 · /tle

For live sub-satellite position, see the globe view (requires WebGL).

§ Visibility from observer

Set your observer location to see the next 7 days of passes ≥ 10°. The values pass through the URL so the page stays shareable.

No JS? Fill the form by hand. The geolocation button needs JavaScript.